Wind_Speed
16 16 17 17 17 16 16 16 14 13 11 9 8 8 8 8 8 7 7 7 7 6
17 16 16 16 14 15 15 15 14 12 11 9 8 7 7 7 6 6 5 5 5 5
17 15 15 15 15 16 16 16 15 14 9 6 5 6 7 7 6 6 5 5 5 5
17 17 15 15 16 16 17 14 13 10 9 11 9 7 7 7 6 6 5 5 4 5
19 19 16 17 16 19 16 15 18 19 18 13 10 7 8 8 6 5 5 5 5 5
21 19 18 21 23 21 19 19 16 14 9 5 8 8 7 6 5 6 6 7 7 7
20 18 18 21 19 21 13 14 16 12 10 11 11 10 9 8 8 9 9 9 10 10
21 17 21 20 17 13 15 14 12 9 10 12 11 11 10 10 11 12 12 12 12 12
21 23 24 21 17 17 17 13 12 12 13 12 11 10 11 13 14 15 14 14 14 14
21 25 25 18 16 13 13 14 14 13 11 10 11 13 16 16 17 17 16 16 17 16
23 26 23 19 15 16 15 14 12 13 13 16 17 16 16 17 17 20 20 20 19 19
23 23 25 18 16 17 13 14 15 17 17 17 16 17 17 18 20 21 22 23 22 21
16 21 22 18 16 15 14 16 18 17 15 16 18 18 19 19 20 21 22 23 23 22
9 12 15 16 15 16 18 17 16 15 17 18 19 20 19 20 18 22 23 24 24 23
Wind_Direction
200 206 212 215 210 204 199 193 188 184 182 182 182 183 185 189 192 189 187 189 192 198
203 205 205 203 202 196 190 185 180 174 174 169 166 171 175 177 179 179 180 183 195 204
205 199 194 194 193 188 185 180 173 168 171 185 207 220 215 213 212 212 215 212 211 220
202 195 196 191 185 182 174 178 175 187 210 231 206 205 214 217 216 213 215 222 224 225
194 196 198 184 184 175 176 197 218 231 252 224 206 213 221 219 217 223 228 230 232 234
196 198 196 192 189 202 218 232 224 210 200 206 218 224 234 237 244 259 263 262 259 256
202 195 193 188 208 226 220 213 208 198 202 219 227 228 230 241 260 268 268 265 264 262
211 217 203 211 216 224 222 218 195 190 219 231 231 235 243 254 266 272 272 271 270 270
212 210 199 202 226 230 211 201 190 220 224 228 237 249 267 280 276 271 268 266 266 267
212 203 198 220 231 221 229 225 206 221 238 243 254 266 266 262 266 267 265 266 268 269
211 208 212 221 236 229 227 217 218 237 242 248 260 263 262 263 264 267 271 272 271 268
209 209 203 219 225 222 220 220 230 249 256 262 262 263 264 263 262 264 267 269 270 269
202 210 217 230 240 228 232 246 253 254 257 262 265 266 266 265 267 265 265 267 267 265
192 204 214 225 220 235 247 248 251 256 261 265 268 270 268 266 262 265 270 271 272 272
Height
1500 1503 1507 1510 1513 1516 1519 1522 1525 1528 1530 1532 1534 1535 1536 1537 1538 1538 1539 1540 1540 1541
1500 1503 1506 1510 1514 1516 1519 1522 1525 1527 1530 1532 1534 1535 1536 1537 1538 1538 1539 1539 1540 1541
1500 1502 1505 1509 1513 1516 1519 1522 1524 1527 1530 1532 1533 1535 1536 1537 1538 1538 1538 1539 1539 1539
1500 1503 1506 1509 1512 1516 1519 1522 1525 1527 1529 1531 1533 1534 1535 1536 1537 1537 1537 1538 1538 1538
1499 1502 1506 1509 1513 1516 1519 1522 1524 1525 1528 1528 1530 1532 1534 1535 1535 1536 1536 1537 1537 1537
1499 1502 1505 1508 1512 1516 1518 1520 1522 1523 1525 1527 1530 1531 1532 1533 1534 1534 1535 1535 1535 1535
1498 1502 1505 1508 1511 1514 1516 1518 1519 1522 1525 1527 1529 1529 1530 1531 1532 1533 1533 1533 1532 1533
1498 1502 1504 1506 1509 1512 1514 1515 1518 1521 1524 1525 1526 1528 1528 1529 1529 1530 1530 1530 1530 1529
1496 1499 1502 1505 1508 1510 1512 1515 1517 1520 1522 1523 1524 1525 1525 1525 1526 1527 1526 1527 1526 1526
1494 1496 1501 1504 1506 1508 1510 1512 1515 1518 1519 1520 1521 1522 1522 1523 1522 1522 1523 1523 1523 1522
1492 1496 1499 1502 1505 1507 1509 1511 1513 1515 1516 1517 1518 1518 1518 1518 1518 1518 1518 1518 1518 1517
1489 1494 1497 1501 1503 1505 1506 1509 1511 1512 1512 1513 1513 1514 1514 1513 1513 1513 1512 1512 1512 1512
1488 1492 1496 1498 1500 1501 1504 1505 1506 1507 1508 1508 1509 1509 1509 1509 1508 1508 1508 1507 1507 1508
1488 1491 1494 1496 1497 1500 1501 1502 1503 1503 1504 1504 1503 1503 1503 1503 1503 1502 1502 1501 1501 1501